Location: Bovenkerk
(52.2915°N, 4.8336°E)
Time: 18:42:33
(UTC+00:00)

Cosmos 2221 - Pass Details

Date: 09 April 2020
Orbit: 592 x 617 km, 82.5° (Epoch: 24 May)

Event Time Altitude Azimuth Distance (km) Brightness Sun altitude
Exits shadow 21:46:38 35° 52° (NE) 1,006 3.6 -24.9°
Drops below altitude 10° 21:49:35 10° 22° (NNE) 1,982 5.6 -25.1°
Sets 21:51:52 0° 16° (NNE) 2,888 6.6 -25.3°
